Date String (YYYY-MM-DD hh:mm:ss) UTC,Instrument flags,Ambient pressure (hPa),Sample flow (lpm),Bypass flow (lpm),Sample temperature (°C),Ambient temperature (°C),ASC tube jacket temperature (°C),LED temperature (°C),Box temperature (°C),Sample RH (%),Span deviation,Mass concentration (μg/m³),Mass concentration (μg/m³),Mass concentration (μg/m³)
DateTimeUTC,F1_M11,P_M11,Q1_M11,Q2_M11,T1_M11,T2_M11,T3_M11,T4_M11,T5_M11,U1_M11,ZSPAN_M11,X2_M11,X0_M11,X1_M11
2023-05-17 11:00:00,,0831.3,5.00,0.00,27.7,25.9,00.0,36.2,29.2,19.0,0000.0,0003.81,0007.63,0002.91
2023-05-17 11:01:00,,0831.2,5.00,0.00,27.7,25.9,00.0,36.2,29.2,19.0,0000.0,0003.83,0007.84,0002.90
2023-05-17 11:02:00,,0831.2,5.00,0.00,27.7,25.9,00.0,36.2,29.2,19.0,0000.0,0003.85,0007.95,0002.92
2023-05-17 11:03:00,,0831.2,5.00,0.00,27.7,25.9,00.0,36.2,29.3,19.0,0000.0,0003.84,0007.91,0002.92
2023-05-17 11:04:00,,0831.2,5.00,0.00,27.7,25.9,00.0,36.2,29.3,19.1,0000.0,0003.85,0008.37,0002.92
2023-05-17 11:05:00,,0831.3,5.00,0.00,27.7,25.9,00.0,36.2,29.3,19.1,0000.0,0003.81,0008.32,0002.92
2023-05-17 11:06:00,,0831.3,5.01,0.00,27.7,26.0,00.0,36.2,29.3,19.1,0000.0,0003.76,0008.05,0002.89
2023-05-17 11:07:00,,0831.3,4.99,0.00,27.7,26.0,00.0,36.1,29.3,19.1,0000.0,0003.79,0008.10,0002.90
2023-05-17 11:08:00,,0831.3,5.00,0.00,27.7,26.0,00.0,36.1,29.3,19.1,0000.0,0003.84,0008.29,0002.91
2023-05-17 11:09:00,,0831.3,5.01,0.00,27.7,26.1,00.0,36.1,29.3,19.0,0000.0,0003.85,0008.38,0002.92
2023-05-17 11:10:00,,0831.3,5.01,0.00,27.7,26.1,00.0,36.1,29.3,18.9,0000.0,0003.83,0008.47,0002.92
2023-05-17 11:11:00,,0831.3,5.00,0.00,27.7,26.1,00.0,36.1,29.4,18.9,0000.0,0003.86,0008.54,0002.93
2023-05-17 11:12:00,,0831.2,5.00,0.00,27.7,26.2,00.0,36.1,29.4,18.9,0000.0,0003.84,0008.38,0002.92
2023-05-17 11:13:00,,0831.2,4.99,0.00,27.7,26.2,00.0,36.1,29.4,18.8,0000.0,0003.86,0008.35,0002.93
2023-05-17 11:14:00,,0831.2,5.00,0.00,27.7,26.2,00.0,36.1,29.4,18.6,0000.0,0003.88,0008.58,0002.93
2023-05-17 11:15:00,,0831.2,5.00,0.00,27.7,26.2,00.0,36.1,29.4,18.5,0000.0,0003.91,0008.54,0002.93
2023-05-17 11:16:00,,0831.2,5.00,0.00,27.7,26.1,00.0,36.1,29.3,18.5,0000.0,0003.98,0008.76,0002.93
2023-05-17 11:17:00,,0831.2,5.00,0.00,27.7,26.1,00.0,36.1,29.3,18.4,0000.0,0004.05,0009.02,0002.94
2023-05-17 11:18:00,,0831.2,5.01,0.00,27.7,26.0,00.0,36.1,29.3,18.5,0000.0,0004.03,0009.35,0002.94
2023-05-17 11:19:00,,0831.3,5.00,0.00,27.7,26.0,00.0,36.1,29.2,18.5,0000.0,0004.04,0009.58,0002.95
2023-05-17 11:20:00,,0831.2,5.00,0.00,27.7,26.0,00.0,36.1,29.3,18.5,0000.0,0004.05,0009.62,0002.95
2023-05-17 11:21:00,,0831.2,4.99,0.00,27.7,26.0,00.0,36.1,29.3,18.4,0000.0,0004.08,0009.56,0002.95
2023-05-17 11:22:00,,0831.2,5.00,0.00,27.7,26.1,00.0,36.1,29.3,18.5,0000.0,0004.08,0009.51,0002.94
2023-05-17 11:23:00,,0831.2,5.00,0.00,27.7,26.1,00.0,36.1,29.3,18.6,0000.0,0004.09,0009.57,0002.95
2023-05-17 11:24:00,,0831.2,5.00,0.00,27.7,26.1,00.0,36.1,29.3,18.6,0000.0,0004.08,0009.46,0002.96
2023-05-17 11:25:00,,0831.2,4.99,0.00,27.7,26.1,00.0,36.1,29.3,18.6,0000.0,0004.08,0009.44,0002.95
2023-05-17 11:26:00,,0831.2,5.01,0.00,27.7,26.1,00.0,36.1,29.3,18.5,0000.0,0004.11,0009.14,0002.99
2023-05-17 11:27:00,,0831.2,5.01,0.00,27.7,26.1,00.0,36.1,29.4,18.5,0000.0,0004.07,0008.95,0003.01
2023-05-17 11:28:00,,0831.2,5.00,0.00,27.7,26.1,00.0,36.1,29.4,18.4,0000.0,0004.02,0008.69,0003.03
2023-05-17 11:29:00,,0831.2,5.00,0.00,27.7,26.1,00.0,36.1,29.4,18.3,0000.0,0004.02,0008.49,0003.01
2023-05-17 11:30:00,,0831.1,4.99,0.00,27.7,26.1,00.0,36.1,29.4,18.3,0000.0,0004.00,0008.10,0002.98
2023-05-17 11:31:00,,0831.1,5.00,0.00,27.7,26.1,00.0,36.1,29.3,18.3,0000.0,0003.98,0008.02,0002.97
2023-05-17 11:32:00,,0831.1,5.01,0.00,27.7,26.1,00.0,36.1,29.4,18.3,0000.0,0003.98,0008.02,0002.96
2023-05-17 11:33:00,,0831.1,5.01,0.00,27.7,26.1,00.0,36.1,29.3,18.2,0000.0,0003.92,0007.92,0002.94
2023-05-17 11:34:00,,0831.1,4.99,0.00,27.7,26.1,00.0,36.1,29.3,18.1,0000.0,0003.90,0007.85,0002.92
2023-05-17 11:35:00,,0831.1,4.99,0.00,27.7,26.1,00.0,36.1,29.4,18.0,0000.0,0003.89,0007.81,0002.91
2023-05-17 11:36:00,,0831.1,5.00,0.00,27.7,26.1,00.0,36.1,29.4,17.8,0000.0,0003.91,0007.79,0002.91
2023-05-17 11:37:00,,0831.1,5.01,0.00,27.7,26.1,00.0,36.1,29.4,17.8,0000.0,0003.88,0007.94,0002.89
2023-05-17 11:38:00,,0831.1,5.01,0.00,27.7,26.1,00.0,36.1,29.3,17.9,0000.0,0003.90,0007.93,0002.87
2023-05-17 11:39:00,,0831.1,4.99,0.00,27.7,26.1,00.0,36.1,29.3,18.0,0000.0,0003.92,0007.98,0002.88
2023-05-17 11:40:00,,0831.2,5.00,0.00,27.7,26.1,00.0,36.1,29.3,18.0,0000.0,0003.91,0008.01,0002.90
2023-05-17 11:41:00,,0831.1,4.99,0.00,27.7,26.1,00.0,36.1,29.3,17.9,0000.0,0003.89,0007.93,0002.94
2023-05-17 11:42:00,,0831.1,4.99,0.00,27.7,26.1,00.0,36.1,29.3,18.0,0000.0,0003.92,0008.39,0002.97
2023-05-17 11:43:00,,0831.2,4.99,0.00,27.7,26.1,00.0,36.1,29.3,18.0,0000.0,0003.95,0008.45,0003.00
2023-05-17 11:44:00,,0831.2,5.00,0.00,27.7,26.1,00.0,36.1,29.3,18.1,0000.0,0004.00,0008.60,0003.04
2023-05-17 11:45:00,,0831.2,4.99,0.00,27.7,26.1,00.0,36.1,29.3,18.3,0000.0,0004.07,0008.88,0003.08
2023-05-17 11:46:00,,0831.2,5.01,0.00,27.7,26.1,00.0,36.1,29.3,18.4,0000.0,0004.13,0009.13,0003.09
2023-05-17 11:47:00,,0831.2,4.99,0.00,27.7,26.1,00.0,36.1,29.3,18.5,0000.0,0004.12,0009.25,0003.10
2023-05-17 11:48:00,,0831.2,5.01,0.00,27.7,26.1,00.0,36.1,29.3,18.5,0000.0,0004.09,0009.00,0003.09
2023-05-17 11:49:00,,0831.2,4.99,0.00,27.7,26.1,00.0,36.1,29.3,18.2,0000.0,0004.07,0009.70,0003.09
2023-05-17 11:50:00,,0831.2,5.01,0.00,27.7,26.1,00.0,36.1,29.4,18.3,0000.0,0004.05,0009.66,0003.09
2023-05-17 11:51:00,,0831.2,5.01,0.00,27.7,26.1,00.0,36.1,29.3,18.5,0000.0,0004.05,0009.62,0003.09
2023-05-17 11:52:00,,0831.1,4.99,0.00,27.7,26.1,00.0,36.1,29.3,18.4,0000.0,0004.05,0009.78,0003.09
2023-05-17 11:53:00,,0831.2,5.00,0.00,27.7,26.1,00.0,36.1,29.3,18.8,0000.0,0003.99,0009.57,0003.08
2023-05-17 11:54:00,,0831.1,4.99,0.00,27.7,26.1,00.0,36.1,29.3,18.7,0000.0,0003.94,0009.68,0003.08
2023-05-17 11:55:00,,0831.1,4.99,0.00,27.7,26.1,00.0,36.1,29.3,18.9,0000.0,0003.89,0009.58,0003.06
2023-05-17 11:56:00,,0831.2,4.99,0.00,27.7,26.1,00.0,36.1,29.4,18.7,0000.0,0003.85,0009.62,0003.05
2023-05-17 11:57:00,,0831.1,5.00,0.00,27.7,26.1,00.0,36.1,29.4,18.9,0000.0,0003.81,0010.34,0003.04
2023-05-17 11:58:00,,0831.1,5.01,0.00,27.7,26.1,00.0,36.1,29.4,19.0,0000.0,0003.80,0010.28,0003.05
2023-05-17 11:59:00,,0831.1,5.00,0.00,27.7,26.1,00.0,36.1,29.4,18.7,0000.0,0003.82,0010.24,0003.06
